Regional Weather Roundup
Issued by NWS

Home | Current Version | Previous Version | Text Only | Print | Product List | Glossary Off
Versions: 1 2 3 4 5 6 7 8 9 10 11 12 13 14 15 16 17 18 19 20 21 22 23 24 25 26 27 28 29 30 31 32 33 34 35 36 37 38 39 40 41 42 43 44 45 46 47 48 49 50

766
ASUS45 KSLC 220810
RWRUT

UTAH REGIONAL WEATHER ROUNDUP
NATIONAL WEATHER SERVICE SALT LAKE CITY UT
200 AM MDT THU JUN 22 2017

UTZ001>011-023>025-220900-

NORTHERN UTAH

CITY           SKY/WX    TMP DP  RH WIND       PRES   REMARKS
BRIGHAM CITY   CLEAR     71  28  20 NW10      29.95S
HILL AFB       CLEAR     74  37  26 NW9       29.97R
LOGAN          CLEAR     56  48  74 NW6       29.98R
OGDEN          CLEAR     72  40  31 NW9       29.94R
SALT LAKE CITY CLEAR     76  45  33 N7        29.93R
TOOELE VALLEY  CLEAR     72  55  56 N8        29.97R
WENDOVER         N/A     78  36  21 E12G17    29.96R
HEBER CITY     CLEAR     57  50  77 CALM      30.01S
WEST JORDAN    CLEAR     77  48  35 NW15      29.96S

$$

UTZ011>015-024>027-220900-

CENTRAL/NORTHEAST UTAH

CITY           SKY/WX    TMP DP  RH WIND       PRES   REMARKS
PROVO AIRPORT  CLEAR     77  51  40 NW8       29.94R
MOAB/CANYONLAN PTCLDY    80  31  16 CALM      29.85R
DELTA          CLEAR     77  43  29 NE10      29.93S
PRICE          PTCLDY    71  32  23 N6        29.99S
RICHFIELD      CLEAR     77  25  14 SW7       29.98S
ROOSEVELT      PTCLDY    70  41  35 SW5       29.95F
VERNAL         CLEAR     73  42  32 W10       29.96R

$$

UTZ013>016-019>022-027-220900-

SOUTHERN UTAH

CITY           SKY/WX    TMP DP  RH WIND       PRES   REMARKS
BRYCE CANYON   MOCLDY    45  31  58 N3        30.19F
CEDAR CITY     CLEAR     68  27  21 SE9       30.01R
MILFORD        CLEAR     69  23  17 NE6       29.96S
ST GEORGE      SUNNY     84  27  12 E8        29.77S
HANKSVILLE     PTCLDY    72  27  18 CALM      29.88S
KANAB          CLEAR     63  36  36 N5        30.01R
BLANDING       PTCLDY    67  37  33 N8        30.07S

$$

REGIONAL REPORTS     COLORADO/ARIZONA

CITY           SKY/WX    TMP DP  RH WIND       PRES   REMARKS
CRAIG, CO      CLOUDY    57  46  66 W21G26    30.15R THUNDER
GRAND JUNCTION CLEAR     78  37  22 E7        29.92R
RIFLE, CO      CLEAR     65  42  43 S10       30.03R
MONTROSE, CO   CLOUDY    69  38  32 SE10      30.02S
CORTEZ, CO     CLEAR     54  42  64 CALM      30.03R
COLORADO CITY    N/A     64  30  27 CALM      29.99S
PAGE, AZ       CLEAR     88  28  11 W3        29.87S
GRAND CANYON   CLEAR     54  29  38 CALM      30.15S
KINGMAN, AZ    CLEAR     82  29  14 SW9       29.84S
FLAGSTAFF, AZ  PTCLDY    72  25  17 CALM      30.17F

$$

REGIONAL REPORTS    NEVADA/IDAHO/WYOMING

CITY           SKY/WX    TMP DP  RH WIND       PRES   REMARKS
LAS VEGAS, NV  CLEAR     94  21   7 SW6       29.69R
ELY, NY        CLEAR     65  41  41 N6        30.09S
ELKO, NV       CLEAR     64  38  38 E5        30.08F
POCATELLO, ID  CLEAR     65  33  30 SW17      30.01S
BURLEY, ID     CLEAR     64  36  35 W16       29.98F
FORT BRIDGER,    N/A     65  40  39 W13       30.14F
EVANSTON, WY   CLOUDY    65  44  46 SW5       30.13F
ROCK SPRINGS,  CLOUDY    61  42  49 SW7       30.09R
KEMMERER, WY     N/A     57  37  47 CALM      30.13S

$$




USA.gov is the U.S. government's official web portal to all federal, state and local government web resources and services.